Weather in Irmino

Ukraine / Luhansk Region     48°35′44″N   38°35′11″E
temp.,
°C
wind,
m/s
gust,
m/s
humid.,
%
clouds,
%
prec.,
mm/h
press.,
hPa
HPBL,
m
28 july, wed
wed2800:00+22sw47567 0.0 1018135
03:00+19w36690 0.0 1018112
06:00+20sw22690 0.0 101831
09:00+26w22500 0.0 1018488
12:00+31ssw22280 0.0 10162773
15:00+32wsw332657 0.0 10153191
18:00+29w3437100 0.0 1014508
21:00+24sw33450 0.0 101538
29 july, thu
thu2900:00+23sw386074 0.0 1014134
03:00+22wsw3864100 0.0 1014199
06:00+22sw376227 0.0 1014157
09:00+27sw684239 0.0 1013738
12:00+31wsw57367 0.0 10121842
15:00+32wsw673545 0.0 10112787
18:00+23sw587173 0.4 1011153
21:00+23ssw347055 1.8 101162
30 july, fri
fri3000:00+22wsw2378100 0.1 101148
03:00+20wsw228498 0.1 101013
06:00+21ssw238270 0.1 101079
09:00+26wsw4558100 0.1 1010667
12:00+31wsw46438 0.0 10101609
15:00+33w563541 0.0 10082653
18:00+30w5744100 0.0 1008520
21:00+25w115914 0.0 100811
31 july, sat
sat3100:00+21nne2275100 0.0 100916
03:00+20ese1181100 0.5 100913
06:00+21ene11831 0.8 101024
09:00+26nne22640 0.9 1010573
12:00+29n325014 0.3 10101557
15:00+29n3347100 0.3 1010894
18:00+29nne234775 0.0 1010347
21:00+25nne35540 0.0 101195
1 august, sun
sun100:00+23ene34570 0.0 101154
03:00+22ene11600 0.0 101111
06:00+22ne22650 0.0 101120
09:00+28ene22490 0.0 1011474
12:00+33sse24290 0.0 10102105
15:00+35s34235 0.0 10093159
18:00+33s233077 0.0 1009278
21:00+27nw22497 0.0 101019